Probability
0 0 0 0 0 0 0 0 0 0 0 0 0 0 0 0 0 0 0 0 0 0 0 0 0 0 0 0 0 0 0 0 0 0 0 0 0 0 0 0 0 0 0
0 0 0 0 0 0 0 0 0 0 0 0 0 0 0 0 0 0 0 0 0 0 0 0 0 0 0 0 0 0 0 0 0 0 0 0 0 0 0 0 0 0 0
0 0 0 0 0 0 0 0 0 0 0 0 0 0 0 0 0 0 0 0 0 0 0 0 0 0 0 0 0 0 0 0 0 0 0 0 0 0 0 0 0 0 0
0 0 0 0 0 0 0 0 0 0 0 0 0 0 0 0 0 0 0 0 0 0 0 0 0 0 0 0 0 0 0 0 0 0 0 0 0 0 0 0 0 0 0
0 0 0 0 0 0 0 0 0 0 0 0 0 0 0 0 0 0 0 0 0 0 0 0 0 0 0 0 0 0 0 0 0 0 0 0 0 0 0 0 0 0 0
0 0 0 0 0 0 0 0 0 0 0 0 0 0 0 0 0 0 0 0 0 0 0 0 0 0 0 0 0 0 0 0 0 0 0 0 0 0 0 0 0 0 0
0 0 0 0 0 0 0 0 0 0 0 0 0 0 0 0 0 0 0 0 0 0 0 0 0 0 0 0 0 0 0 0 0 0 0 0 0 0 0 0 0 0 0
0 0 0 0 0 0 0 0 0 0 0 0 0 0 0 0 0 0 0 0 0 0 0 0 0 0 0 0 0 0 0 0 0 0 0 0 0 0 0 0 0 0 0
0 0 0 0 0 0 0 0 0 0 0 0 0 0 0 0 0 0 0 0 0 0 0 0 0 0 0 0 0 0 0 0 0 0 0 0 0 0 0 0 0 0 0
0 0 0 0 0 0 0 0 0 0 0 0 0 0 0 0 0 0 0 0 0 0 0 0 0 0 0 0 0 0 0 0 0 0 0 0 0 0 0 0 0 0 0
0 0 0 0 0 0 0 0 0 0 0 0 0 0 0 0 0 0 0 0 0 0 0 0 0 0 0 0 0 0 0 0 0 0 0 0 0 0 0 0 0 0 0
0 0 0 0 0 0 0 0 0 0 0 0 0 0 0 0 0 0 0 0 0 0 0 0 0 0 0 0 0 0 0 0 0 0 0 0 0 0 0 0 0 0 0
0 0 0 0 0 0 0 0 0 0 0 0 0 0 0 0 0 0 0 0 0 0 0 0 0 0 0 0 0 0 0 0 0 0 0 0 0 0 0 0 0 0 0
0 0 0 0 0 0 0 0 0 0 0 0 0 0 0 0 0 0 0 0 0 0 0 0 0 0 0 0 0 0 0 0 0 0 0 0 0 0 0 0 0 0 0
0 0 0 0 0 0 0 0 0 0 0 0 0 0 0 0 0 0 0 0 0 0 0 0 0 0 0 0 0 0 0 0 0 0 0 0 0 0 0 0 0 0 0
0 0 0 0 0 0 0 0 0 0 0 0 0 0 0 0 0 0 0 0 0 0 0 0 0 0 0 0 0 0 0 0 0 0 0 0 0 0 0 0 0 0 0
0 0 0 0 0 0 0 0 0 0 0 0 0 0 0 0 0 0 0 0 0 0 0 0 0 0 0 0 0 0 0 0 0 0 0 0 0 0 0 0 0 0 0
0 0 0 0 0 0 0 0 0 0 0 0 0 0 0 0 0 0 0 0 0 0 0 0 0 0 0 0 0 0 0 0 0 0 0 0 0 0 0 0 0 0 0
0 0 0 0 0 0 0 0 0 0 0 0 0 0 0 0 0 0 0 0 0 0 0 0 0 0 0 0 0 0 0 0 0 0 0 0 0 0 0 0 0 0 0
0 0 0 0 0 0 0 0 0 0 0 0 0 0 0 0 0 0 0 0 0 0 0 0 0 0 0 0 0 0 0 0 0 0 0 0 0 0 0 0 0 0 0
0 0 0 0 0 0 0 0 0 0 0 0 0 0 0 0 0 0 0 0 0 0 0 0 0 0 0 0 0 0 0 0 0 0 0 0 0 0 0 0 0 0 0
0 0 0 0 0 0 0 0 0 0 0 0 0 0 0 0 0 0 0 0 0 0 0 0 0 0 0 0 0 0 0 0 0 0 0 0 0 0 0 0 0 0 0
0 0 0 0 0 0 0 0 0 0 0 0 0 0 0 0 0 0 0 0 0 0 0 0 0 0 0 0 0 0 0 0 0 0 0 0 0 0 0 0 0 0 0
0 0 0 0 0 0 0 0 0 0 0 0 0 0 0 0 0 0 0 0 0 0 0 0 0 0 0 0 0 0 0 0 0 0 0 0 0 0 0 0 0 0 0
0 0 0 0 0 0 0 0 0 0 0 0 0 0 0 0 0 0 0 0 0 0 0 0 0 0 0 0 0 0 0 0 0 0 0 0 0 0 0 0 0 0 0
0 0 0 0 0 0 0 0 0 0 0 0 0 0 0 0 0 0 0 0 0 0 0 0 0 0 0 0 0 0 0 0 0 0 0 0 0 0 0 0 0 0 0
Height
5778 5773 5769 5765 5761 5758 5755 5753 5751 5749 5748 5748 5748 5749 5750 5752 5755 5759 5762 5766 5770 5774 5778 5781 5785 5790 5795 5799 5803 5807 5812 5816 5820 5824 5828 5832 5835 5838 5840 5843 5845 5846 5848
5780 5775 5771 5767 5763 5759 5756 5753 5751 5749 5747 5746 5745 5746 5747 5748 5750 5753 5755 5758 5762 5766 5769 5773 5777 5781 5786 5790 5794 5799 5803 5808 5812 5816 5820 5824 5827 5830 5833 5836 5838 5840 5841
5782 5778 5773 5769 5765 5761 5757 5754 5752 5749 5747 5745 5744 5744 5744 5745 5746 5748 5750 5752 5755 5758 5761 5765 5769 5773 5778 5782 5786 5790 5795 5799 5804 5809 5813 5816 5820 5823 5826 5828 5831 5832 5833
5785 5780 5776 5771 5767 5763 5759 5756 5753 5750 5747 5745 5744 5743 5742 5742 5743 5744 5745 5747 5749 5752 5755 5758 5761 5765 5770 5774 5778 5783 5787 5792 5796 5801 5805 5809 5812 5815 5818 5821 5823 5825 5827
5787 5782 5778 5773 5769 5765 5761 5757 5754 5751 5748 5746 5743 5742 5740 5740 5739 5739 5740 5742 5743 5746 5748 5751 5755 5758 5762 5766 5771 5775 5780 5785 5789 5793 5798 5801 5805 5808 5811 5814 5816 5818 5820
5789 5785 5780 5775 5771 5766 5762 5759 5755 5752 5748 5745 5743 5740 5738 5737 5736 5735 5735 5736 5738 5740 5742 5745 5748 5751 5755 5760 5764 5769 5773 5778 5782 5786 5791 5794 5798 5801 5804 5807 5810 5812 5814
5792 5787 5782 5777 5773 5768 5764 5760 5756 5752 5748 5745 5742 5739 5736 5734 5732 5731 5731 5731 5732 5733 5736 5739 5742 5745 5749 5753 5757 5762 5767 5772 5776 5781 5784 5788 5791 5794 5797 5800 5803 5805 5807
5794 5789 5784 5779 5775 5770 5765 5761 5756 5752 5748 5744 5740 5737 5733 5730 5728 5727 5726 5726 5727 5728 5730 5733 5736 5739 5743 5748 5752 5756 5761 5766 5770 5775 5778 5782 5785 5788 5792 5795 5797 5799 5801
5797 5792 5787 5782 5777 5772 5767 5762 5757 5752 5748 5743 5739 5735 5731 5727 5724 5723 5722 5721 5722 5723 5725 5728 5731 5734 5738 5742 5747 5752 5756 5760 5764 5769 5773 5776 5780 5783 5786 5790 5792 5794 5796
5799 5794 5789 5784 5779 5773 5768 5763 5758 5753 5748 5743 5738 5732 5728 5724 5721 5719 5717 5717 5717 5718 5721 5723 5726 5730 5733 5737 5742 5747 5752 5756 5760 5764 5768 5772 5775 5778 5782 5785 5787 5790 5792
5801 5796 5791 5786 5781 5776 5770 5765 5759 5754 5748 5743 5737 5731 5726 5721 5718 5716 5714 5713 5714 5715 5717 5720 5723 5726 5730 5734 5739 5743 5748 5752 5757 5761 5765 5768 5771 5774 5777 5780 5783 5786 5789
5803 5799 5794 5789 5783 5778 5772 5767 5761 5755 5750 5744 5738 5732 5726 5721 5718 5715 5713 5712 5712 5713 5715 5717 5720 5724 5728 5732 5736 5741 5745 5750 5754 5758 5762 5766 5769 5772 5775 5778 5780 5783 5786
5805 5801 5796 5791 5786 5781 5775 5769 5763 5758 5752 5746 5740 5735 5729 5724 5720 5717 5715 5714 5713 5714 5715 5717 5719 5723 5726 5731 5735 5740 5744 5748 5752 5757 5760 5764 5767 5770 5773 5776 5779 5781 5783
5807 5802 5798 5793 5788 5783 5778 5772 5767 5762 5756 5751 5745 5739 5734 5729 5725 5721 5719 5717 5716 5716 5717 5718 5720 5723 5727 5731 5735 5740 5744 5748 5752 5756 5759 5763 5766 5769 5772 5775 5777 5779 5782
5808 5804 5800 5795 5791 5786 5781 5776 5771 5766 5760 5755 5750 5745 5740 5735 5730 5727 5724 5722 5721 5720 5720 5721 5723 5726 5729 5733 5737 5741 5745 5749 5752 5756 5759 5762 5765 5768 5771 5774 5776 5778 5781
5808 5805 5801 5797 5793 5789 5784 5779 5774 5769 5765 5760 5755 5750 5745 5741 5736 5733 5730 5728 5727 5726 5726 5726 5728 5730 5733 5736 5740 5743 5747 5750 5753 5756 5760 5763 5766 5768 5771 5773 5775 5777 5779
5808 5805 5802 5798 5794 5790 5786 5782 5778 5773 5769 5764 5760 5755 5751 5747 5743 5739 5737 5735 5734 5733 5733 5733 5734 5736 5738 5741 5743 5746 5749 5752 5755 5758 5761 5763 5766 5768 5770 5773 5775 5776 5778
5807 5804 5801 5798 5795 5791 5788 5784 5780 5777 5773 5769 5765 5760 5757 5753 5749 5746 5744 5742 5741 5740 5740 5740 5741 5742 5743 5745 5747 5749 5752 5754 5757 5759 5762 5764 5766 5768 5770 5772 5774 5776 5777
5805 5802 5800 5797 5794 5792 5788 5785 5782 5779 5776 5772 5768 5765 5762 5758 5755 5753 5751 5749 5748 5747 5746 5746 5746 5747 5748 5749 5751 5753 5754 5757 5759 5761 5763 5765 5767 5769 5770 5772 5774 5775 5776
5801 5799 5797 5795 5793 5790 5788 5785 5783 5780 5777 5774 5771 5768 5765 5763 5760 5758 5756 5754 5753 5752 5751 5751 5751 5752 5752 5753 5754 5756 5757 5759 5760 5762 5764 5765 5767 5768 5770 5771 5773 5774 5775
5796 5795 5793 5791 5790 5788 5786 5784 5782 5780 5778 5775 5773 5771 5768 5766 5764 5762 5760 5759 5757 5757 5756 5756 5756 5756 5756 5757 5757 5758 5759 5761 5762 5763 5765 5766 5767 5769 5770 5771 5772 5773 5774
5790 5789 5788 5787 5785 5784 5783 5781 5780 5778 5776 5775 5773 5771 5769 5768 5766 5764 5763 5761 5760 5760 5759 5759 5759 5759 5759 5759 5760 5761 5761 5762 5764 5765 5766 5767 5768 5769 5769 5770 5771 5772 5773
5782 5781 5781 5780 5779 5779 5778 5777 5776 5775 5774 5773 5771 5770 5769 5768 5766 5765 5764 5763 5762 5761 5761 5760 5760 5760 5761 5761 5761 5762 5763 5763 5764 5765 5766 5767 5767 5768 5769 5769 5770 5771 5771
5773 5773 5773 5772 5772 5772 5771 5771 5770 5770 5769 5769 5768 5767 5766 5766 5765 5764 5763 5762 5762 5761 5761 5761 5761 5761 5761 5761 5762 5762 5763 5763 5764 5764 5765 5766 5766 5766 5767 5767 5768 5768 5768
5763 5763 5764 5763 5763 5763 5764 5764 5764 5763 5763 5763 5763 5763 5762 5762 5762 5761 5761 5760 5760 5760 5759 5759 5759 5760 5760 5760 5761 5761 5761 5762 5762 5763 5763 5764 5764 5764 5765 5765 5765 5765 5765
5751 5752 5753 5753 5754 5754 5754 5755 5755 5755 5756 5756 5756 5756 5756 5756 5757 5757 5756 5756 5756 5756 5756 5756 5756 5757 5757 5757 5758 5758 5758 5759 5759 5760 5760 5760 5761 5761 5761 5761 5761 5761 5761
Wind_Speed
21 19 18 16 15 14 11 9 7 6 8 9 12 16 20 22 26 30 33 34 36 37 38 37 37 38 37 38 39 40 39 38 36 34 34 34 34 33 33 33 32 31 30
21 21 20 19 17 15 13 11 10 8 7 7 7 11 14 17 21 25 27 30 32 35 35 35 36 37 38 37 36 36 37 37 36 34 33 33 32 32 31 31 32 32 31
22 21 21 20 19 17 15 13 11 10 8 5 5 7 10 13 16 20 23 26 29 31 31 32 32 34 36 36 35 34 34 35 35 35 33 32 31 30 30 29 29 28 28
22 22 22 21 20 18 16 15 13 12 10 7 5 5 7 10 12 15 20 23 25 27 28 29 30 32 34 34 33 33 33 33 33 33 33 32 31 31 29 28 28 27 26
23 22 22 22 21 19 17 16 15 13 12 10 8 7 6 8 11 13 16 19 22 24 25 26 27 29 31 31 31 31 31 31 31 31 32 31 31 30 28 27 26 26 25
23 23 23 23 22 20 19 18 16 15 13 12 10 9 8 9 10 12 15 17 20 21 23 24 26 27 28 29 29 29 29 29 29 29 29 29 28 28 27 27 26 26 26
24 24 24 23 23 22 21 20 18 17 16 14 13 11 10 10 10 11 13 16 18 20 21 23 23 25 26 27 27 27 27 28 28 28 28 27 26 26 27 27 26 26 25
25 25 25 24 24 23 23 21 20 19 18 17 15 14 13 11 10 10 11 14 16 18 19 21 22 23 24 25 25 25 26 27 27 27 26 26 24 24 23 23 23 23 23
26 26 26 25 25 24 24 23 22 21 20 19 18 16 15 13 11 9 10 11 13 16 17 18 20 21 22 23 24 24 24 24 24 24 24 23 24 23 22 22 21 21 20
25 26 26 26 26 25 25 24 24 23 22 21 20 19 17 14 11 9 8 8 10 14 16 17 18 20 21 21 22 22 22 22 21 21 21 21 21 21 21 20 20 19 18
24 25 26 26 26 26 26 25 25 24 24 23 22 20 18 15 11 8 6 4 6 10 13 15 16 17 19 20 20 21 21 20 19 20 19 19 18 19 19 19 18 18 17
23 24 25 26 26 26 26 26 26 25 25 25 24 22 20 16 12 9 5 2 2 6 9 12 14 15 16 18 19 20 19 19 19 19 18 17 17 17 18 17 17 18 18
21 22 24 25 25 26 26 26 26 26 26 26 25 24 22 19 15 11 8 5 4 5 7 10 12 14 16 18 19 20 19 19 19 19 18 17 17 17 16 16 17 17 16
19 20 22 23 24 25 25 26 26 26 26 26 26 25 23 21 18 15 11 9 7 6 7 10 13 15 17 18 18 19 19 19 19 18 18 17 17 17 16 16 16 15 15
18 18 19 21 22 23 24 24 24 25 25 25 25 25 24 22 20 17 15 13 11 10 11 11 14 16 17 18 19 19 19 18 18 18 17 17 16 16 16 15 14 13 13
16 17 17 18 19 20 21 22 23 23 23 24 24 24 23 22 21 18 16 15 15 14 15 15 15 17 17 18 18 18 18 17 17 17 16 15 15 14 14 14 13 13 12
15 15 16 16 17 18 18 19 20 21 21 21 22 23 22 22 21 19 17 16 16 15 16 16 17 17 17 17 17 17 16 15 15 15 14 14 13 13 13 13 12 12 11
15 14 14 15 15 16 16 16 17 18 18 18 19 20 20 20 20 19 17 16 16 15 15 15 15 16 16 16 16 16 16 15 14 14 13 13 13 12 12 12 12 11 11
16 15 14 14 14 14 14 14 14 15 15 16 16 16 17 17 17 17 16 16 15 14 14 13 13 13 14 14 14 14 14 13 13 13 13 13 12 12 11 11 11 10 10
17 16 15 14 13 13 12 12 12 12 12 12 13 13 13 13 13 13 13 13 13 12 12 12 12 12 12 13 13 13 13 13 13 13 12 12 11 10 10 10 10 9 9
21 19 17 16 14 13 12 12 11 10 9 9 9 9 10 10 10 10 10 10 10 10 10 10 10 11 11 11 11 11 12 12 12 11 11 10 10 9 9 9 9 8 8
25 23 21 19 17 16 14 13 11 10 9 8 7 6 6 6 6 6 6 7 7 7 7 7 8 8 9 8 9 9 10 10 10 10 9 9 9 9 8 8 8 8 8
29 27 25 23 21 19 17 16 14 12 11 9 8 7 5 4 3 2 2 2 3 4 5 5 6 6 7 7 8 8 9 9 9 9 9 9 9 8 8 8 8 8 8
33 31 30 28 26 24 22 19 18 16 15 13 11 10 8 7 5 4 3 2 2 2 3 4 4 5 6 6 7 8 8 9 9 10 10 10 10 10 10 10 10 10 10
36 35 34 32 30 28 26 24 22 20 19 17 16 14 13 11 10 8 7 7 6 6 6 6 6 7 7 8 8 9 10 10 11 11 11 11 12 12 12 12 13 13 13
40 39 38 36 35 33 31 29 27 25 23 21 20 18 17 16 15 13 12 11 10 10 10 10 10 10 10 11 11 12 12 13 13 13 14 14 15 15 16 16 16 17 17
Wind_Direction
21 19 17 15 13 13 9 356 337 306 284 267 247 238 233 231 230 229 228 229 228 227 229 230 230 229 229 228 227 228 227 227 229 231 232 233 234 237 239 241 244 248 254
24 24 22 21 19 17 14 8 1 349 321 296 264 246 240 236 233 233 232 232 229 228 231 231 230 228 227 226 226 226 227 228 229 230 232 234 235 237 239 241 244 249 254
24 23 23 22 21 20 18 13 8 1 354 328 292 266 249 242 239 235 233 232 230 231 232 230 230 228 226 225 225 226 227 227 228 229 230 233 237 238 239 242 245 250 254
22 22 22 21 20 19 18 16 13 8 4 357 333 291 264 251 246 241 235 233 232 232 233 234 232 229 227 226 226 226 227 227 227 228 231 235 238 240 242 245 247 250 253
23 22 21 20 20 20 19 18 14 11 6 357 345 324 294 272 262 252 244 238 233 230 231 231 231 231 231 232 232 232 231 231 230 231 233 236 238 240 243 245 247 249 251
22 22 21 21 20 20 20 18 16 11 5 359 351 337 318 297 278 263 254 247 242 236 232 233 232 230 230 230 231 231 232 232 232 234 234 235 238 240 241 244 244 246 249
22 22 21 20 20 20 18 15 11 8 4 359 352 343 329 312 294 276 259 251 247 242 238 233 230 229 229 229 229 229 229 230 230 232 234 234 237 239 240 241 242 245 248
23 22 21 21 20 19 17 15 12 8 5 360 353 345 335 322 305 286 267 252 245 239 234 232 231 229 228 228 228 228 228 227 228 229 230 233 233 233 235 237 239 241 242
22 22 21 20 19 18 17 16 13 10 6 1 356 349 342 331 315 296 275 256 243 234 229 228 228 228 227 225 224 223 223 223 224 224 225 227 228 229 230 231 233 235 237
20 20 20 20 19 19 18 17 15 13 9 6 1 356 349 342 329 309 290 263 241 228 222 221 221 220 219 218 217 216 215 215 216 215 216 219 221 222 223 226 227 226 228
18 18 19 19 19 19 18 17 16 15 13 10 8 5 0 356 349 337 319 279 237 219 214 213 211 208 207 207 207 205 205 206 207 208 208 210 213 213 214 215 216 215 218
16 18 18 18 18 18 18 18 18 18 17 16 15 15 15 14 13 12 14 26 187 194 196 196 196 196 197 197 196 194 196 198 199 199 200 201 201 201 202 204 207 209 212
13 15 16 17 17 17 18 20 21 21 22 22 22 23 25 28 30 34 46 70 102 139 164 172 178 180 181 181 183 185 187 190 190 192 192 193 194 196 197 199 202 204 204
7 9 12 14 15 16 18 20 23 24 24 26 27 29 32 35 39 45 57 72 88 106 134 154 161 163 168 171 172 175 179 180 182 184 184 187 191 194 197 198 198 197 200
1 4 6 10 13 15 17 20 23 25 26 27 29 31 34 38 43 50 59 70 83 97 112 129 144 152 159 163 164 167 171 175 179 180 180 181 184 186 187 189 191 194 197
352 356 360 4 8 12 15 19 22 24 26 29 31 33 36 41 46 53 62 71 81 93 103 113 128 140 148 154 159 163 167 173 174 175 178 181 182 182 184 186 189 191 196
340 345 350 355 0 6 10 15 19 22 25 29 32 35 38 42 47 54 63 72 82 90 100 110 120 130 138 146 152 156 160 164 167 170 171 174 176 179 181 185 188 191 195
326 331 336 343 349 356 2 8 14 19 23 27 31 35 40 45 50 56 64 73 82 90 99 106 115 125 132 139 145 151 156 159 162 165 167 168 170 173 177 180 183 186 189
310 316 321 327 334 342 350 357 4 11 17 23 29 34 39 45 51 58 65 73 82 90 99 106 113 122 132 138 143 149 155 159 162 164 166 169 172 175 179 182 184 186 191
295 299 305 311 316 323 331 340 348 357 6 14 22 29 36 44 51 57 65 73 81 89 98 107 116 122 129 135 140 145 151 156 159 161 165 169 175 180 184 186 188 192 197
282 285 289 294 299 304 309 317 325 335 346 356 7 19 29 39 48 57 65 73 81 89 99 109 118 125 132 139 144 148 152 157 161 164 168 172 175 178 181 187 193 199 204
273 274 276 279 283 287 290 295 301 308 316 326 338 351 5 22 37 53 66 76 84 94 104 116 125 133 139 146 153 157 160 165 169 173 177 180 184 188 191 197 205 212 217
268 268 269 270 272 274 276 278 281 285 289 293 299 304 313 326 346 10 42 78 99 110 120 131 141 151 159 164 169 174 178 182 186 189 193 198 203 207 212 218 224 228 232
265 265 265 265 265 266 266 268 269 271 272 274 275 277 278 277 275 274 272 262 227 197 186 183 182 184 188 192 194 198 201 204 207 211 214 218 221 224 228 232 236 239 244
263 263 262 261 261 261 261 261 261 262 264 264 265 264 264 264 262 259 255 253 249 243 237 230 225 223 222 222 222 223 225 226 228 230 232 234 236 239 243 246 248 251 254
261 261 260 259 259 258 257 257 257 257 258 259 259 259 259 258 258 257 255 252 250 249 247 245 243 240 239 239 239 240 241 241 242 243 245 248 250 252 253 255 257 259 262